SHARC (42712 NORAD) Tracking and Keplerian Element Data

This shows tracking and keplerian element data for the satellite.

Feedback or suggestion? Click here.




ElementValue
Catalog42712
NameSHARC
Epoch Orbit11225
Epoch Day123.64217769
Epoch Year2019
RAAN152.4129
Inclination51.6192
Eccentricity0.0003348
Argument of Perigee312.8737
Mean Anonmoly146.73
Mean Motion16.37776182
Decay Rate0.08981558
L11 42712U 98067LT 19123.64217769 .08981558 12375-4 84912-3 0 9997
L22 42712 51.6192 152.4129 0003348 312.8737 146.7300 16.37776182112255



Live tracking and technical data element details for SHARC (NORAD 42712). SHARC can be tracked NOW for your location showing map with azimuth and elevation plus other details from your city location.







IsCatalogInMostPopularTable: catalog: 42712, numindb: 604
Update: records affected: 1



GetName: 42712 SHARC

Hit Count: updated at: Tue, 03 Dec 2024 02:46:48 GMT